Jefferson, NC

9:56 AM EDT on July 21, 2019 (GMT -0400)
Ashe County

Weather History for KGEV - May, 2019

Change the Weather History Date:

Friday, May 10, 2019

  Actual Average Record
Temperature  
Mean Temperature 64 °F -  
Max Temperature 70 °F 67 °F 82 °F (2003)
Min Temperature 58 °F 42 °F 26 °F (1966)
Degree Days  
Heating Degree Days 1    
Growing Degree Days 14 (Base 50)    
Moisture  
Dew Point 60 °F    
Average Humidity 92    
Maximum Humidity 100    
Minimum Humidity 76    
Precipitation  
Precipitation 0.01 in - - ()
Sea Level Pressure  
Sea Level Pressure 30.13 in    
Wind  
Wind Speed 3 mph (SSE)    
Max Wind Speed 8 mph    
Max Gust Speed -    
Visibility 7 miles    
Events Rain    
Averages and records for this station are not official NWS values.
T = Trace of Precipitation, MM = Missing Value Source: NWS Daily Summary

Daily Weather History Graph

Daily Weather History Graph

Search for Another Location

Airport or City:

Astronomy

May. 10, 2019 Rise Set
Actual Time 6:23 AM EDT 8:21 PM EDT
Civil Twilight 5:55 AM EDT 8:49 PM EDT
Nautical Twilight 5:20 AM EDT 9:24 PM EDT
Astronomical Twilight 4:43 AM EDT 10:01 PM EDT
Moon 11:23 AM EDT (5/10) 1:11 AM EDT (5/10)
Length of Visible Light 14h 54m
Length of Day
13h 57m
Waxing Crescent, 35% of the Moon is Illuminated
May 10
Waxing Crescent
May 11
First Quarter
May 18
Full
May 26
Last Quarter
Jun 3
New

Hourly Weather History & Observations

Time (EDT) Temp. Dew Point Humidity Pressure Visibility Wind Dir Wind Speed Gust Speed Precip Events Conditions
12:05 AM 58.1 °F 58.1 °F 100% 30.13 in 2.5 mi Calm Calm - N/A   Drizzle
12:25 AM 58.3 °F 58.3 °F 100% 30.14 in 1.0 mi SE 3.5 mph - 0.02 in Rain Rain
12:45 AM 58.3 °F 58.3 °F 100% 30.14 in 1.0 mi SSE 3.5 mph - 0.03 in Rain Heavy Rain
1:05 AM 58.1 °F 58.1 °F 100% 30.14 in 4.0 mi SSE 4.6 mph - N/A   Drizzle
1:25 AM 58.1 °F 58.1 °F 100% 30.13 in 7.0 mi SSE 6.9 mph - N/A   Light Drizzle
1:45 AM 58.1 °F 58.1 °F 100% 30.13 in 5.0 mi South 5.8 mph - N/A   Light Drizzle
2:05 AM 58.1 °F 58.1 °F 100% 30.13 in 7.0 mi SSE 4.6 mph - N/A   Overcast
2:25 AM 58.1 °F 58.1 °F 100% 30.12 in 5.0 mi SE 5.8 mph - N/A   Overcast
2:45 AM 58.3 °F 58.3 °F 100% 30.11 in 2.5 mi South 5.8 mph - N/A   Drizzle
3:05 AM 58.3 °F 58.3 °F 100% 30.12 in 5.0 mi South 6.9 mph - N/A   Drizzle
3:25 AM 58.3 °F 58.3 °F 100% 30.12 in 7.0 mi South 5.8 mph - N/A Rain Light Rain
3:45 AM 58.3 °F 58.3 °F 100% 30.11 in 1.2 mi SSE 5.8 mph - N/A   Overcast
4:05 AM 58.3 °F 58.3 °F 100% 30.11 in 1.0 mi SSE 3.5 mph - 0.01 in   Overcast
4:25 AM 58.1 °F 58.1 °F 100% 30.11 in 1.2 mi South 4.6 mph - 0.01 in   Overcast
4:45 AM 58.1 °F 58.1 °F 100% 30.11 in 0.8 mi SSE 3.5 mph - 0.01 in   Overcast
5:05 AM 58.1 °F 58.1 °F 100% 30.11 in 0.5 mi SSE 4.6 mph - N/A   Light Drizzle
5:25 AM 58.1 °F 58.1 °F 100% 30.10 in 0.8 mi South 3.5 mph - N/A   Light Drizzle
5:45 AM 58.1 °F 58.1 °F 100% 30.11 in 2.5 mi Calm Calm - N/A   Overcast
6:05 AM 58.1 °F 58.1 °F 100% 30.11 in 2.5 mi South 3.5 mph - N/A Rain Rain
6:25 AM 58.1 °F 58.1 °F 100% 30.11 in 3.0 mi Calm Calm - N/A   Overcast
6:45 AM 58.1 °F 58.1 °F 100% 30.13 in 0.8 mi Calm Calm - N/A   Light Drizzle
7:05 AM 58.3 °F 58.3 °F 100% 30.14 in 0.2 mi Calm Calm - N/A   Light Drizzle
7:25 AM 58.5 °F 58.5 °F 100% 30.14 in 1.0 mi Calm Calm - N/A   Overcast
7:45 AM 58.8 °F 58.8 °F 100% 30.14 in 3.0 mi SSE 3.5 mph - N/A   Overcast
8:05 AM 59.2 °F 59.2 °F 100% 30.13 in 10.0 mi SSE 4.6 mph - N/A   Overcast
8:25 AM 59.9 °F 59.9 °F 100% 30.14 in 10.0 mi SSE 4.6 mph - N/A   Overcast
8:45 AM 61.0 °F 60.1 °F 97% 30.14 in 10.0 mi Calm Calm - N/A   Overcast
9:05 AM 61.9 °F 59.7 °F 93% 30.14 in 10.0 mi Calm Calm - N/A   Mostly Cloudy
9:25 AM 63.0 °F 60.3 °F 91% 30.15 in 10.0 mi SSE 3.5 mph - N/A   Mostly Cloudy
9:45 AM 63.0 °F 59.7 °F 89% 30.15 in 10.0 mi SSE 4.6 mph - N/A   Overcast
10:05 AM 64.2 °F 60.1 °F 86% 30.15 in 10.0 mi SSE 3.5 mph - N/A   Mostly Cloudy
10:25 AM 65.5 °F 59.9 °F 82% 30.16 in 10.0 mi SSE 3.5 mph - N/A   Overcast
10:45 AM 66.2 °F 59.5 °F 79% 30.16 in 10.0 mi SSE 3.5 mph - N/A   Overcast
11:05 AM 67.6 °F 60.3 °F 77% 30.15 in 10.0 mi South 3.5 mph - N/A   Mostly Cloudy
11:25 AM 66.0 °F 60.8 °F 83% 30.16 in 10.0 mi SE 5.8 mph - N/A   Mostly Cloudy
11:45 AM 67.6 °F 62.1 °F 82% 30.15 in 10.0 mi SE 6.9 mph - N/A   Mostly Cloudy
12:05 PM 68.0 °F 61.7 °F 80% 30.15 in 10.0 mi SSE 4.6 mph - N/A   Mostly Cloudy
12:25 PM 66.4 °F 61.5 °F 84% 30.15 in 10.0 mi SE 3.5 mph - N/A   Mostly Cloudy
12:45 PM 66.2 °F 61.5 °F 85% 30.15 in 10.0 mi Calm Calm - N/A   Mostly Cloudy
1:05 PM 67.3 °F 62.4 °F 84% 30.14 in 10.0 mi SE 4.6 mph - N/A   Scattered Clouds
1:25 PM 68.0 °F 62.6 °F 83% 30.14 in 10.0 mi SSE 6.9 mph - N/A   Clear
1:45 PM 68.7 °F 62.6 °F 81% 30.14 in 10.0 mi SSE 4.6 mph - N/A   Clear
2:05 PM 67.5 °F 61.7 °F 82% 30.14 in 10.0 mi SSE 8.1 mph - N/A   Scattered Clouds
2:25 PM 67.5 °F 61.9 °F 82% 30.14 in 10.0 mi SSE 6.9 mph - N/A   Overcast
2:45 PM 67.1 °F 61.9 °F 83% 30.14 in 10.0 mi SSE 4.6 mph - N/A   Overcast
3:05 PM 67.1 °F 61.3 °F 82% 30.14 in 10.0 mi SE 5.8 mph - N/A   Overcast
3:25 PM 66.6 °F 61.3 °F 83% 30.13 in 10.0 mi East 4.6 mph - N/A   Overcast
3:45 PM 68.2 °F 62.1 °F 81% 30.13 in 10.0 mi ESE 3.5 mph - N/A   Mostly Cloudy
4:05 PM 70.2 °F 62.4 °F 76% 30.13 in 10.0 mi SE 3.5 mph - N/A   Scattered Clouds
4:25 PM 68.5 °F 61.9 °F 79% 30.13 in 10.0 mi SE 4.6 mph - N/A   Scattered Clouds
4:45 PM 69.4 °F 61.9 °F 77% 30.12 in 10.0 mi SE 5.8 mph - N/A   Overcast
5:05 PM 70.2 °F 63.0 °F 78% 30.12 in 10.0 mi South 6.9 mph - N/A   Overcast
5:25 PM 67.8 °F 62.6 °F 83% 30.12 in 10.0 mi SSE 4.6 mph - N/A   Overcast
5:45 PM 69.1 °F 62.6 °F 80% 30.12 in 10.0 mi SSE 3.5 mph - N/A   Mostly Cloudy
6:05 PM 68.2 °F 62.6 °F 82% 30.12 in 10.0 mi SE 5.8 mph - N/A   Scattered Clouds
6:25 PM 67.6 °F 63.0 °F 85% 30.12 in 10.0 mi SE 3.5 mph - N/A   Scattered Clouds
6:45 PM 67.1 °F 62.6 °F 85% 30.12 in 10.0 mi SSE 3.5 mph - N/A   Scattered Clouds
7:05 PM 66.6 °F 62.6 °F 87% 30.12 in 10.0 mi SSE 4.6 mph - N/A   Scattered Clouds
7:25 PM 65.5 °F 62.6 °F 90% 30.12 in 10.0 mi SSE 3.5 mph - N/A   Scattered Clouds
7:45 PM 65.3 °F 62.6 °F 91% 30.12 in 10.0 mi South 5.8 mph - N/A   Scattered Clouds
8:05 PM 64.4 °F 61.9 °F 92% 30.13 in 10.0 mi Calm Calm - N/A   Scattered Clouds
8:25 PM 63.3 °F 61.7 °F 94% 30.13 in 10.0 mi SSE 3.5 mph - N/A   Scattered Clouds
8:45 PM 62.8 °F 61.7 °F 96% 30.14 in 10.0 mi Calm Calm - N/A   Clear
9:05 PM 62.8 °F 61.7 °F 96% 30.14 in 4.0 mi SSE 3.5 mph - N/A   Clear
9:25 PM 62.6 °F 61.7 °F 97% 30.14 in 10.0 mi Calm Calm - N/A   Clear
9:45 PM 62.1 °F 61.3 °F 97% 30.15 in 10.0 mi Calm Calm - N/A   Clear
10:05 PM 62.4 °F 61.3 °F 96% 30.15 in 10.0 mi Calm Calm - N/A   Clear
10:25 PM 62.8 °F 60.8 °F 93% 30.16 in 10.0 mi Calm Calm - N/A   Clear
10:45 PM 61.3 °F 60.8 °F 98% 30.16 in 10.0 mi Calm Calm - N/A   Clear
11:05 PM 61.2 °F 60.8 °F 99% 30.15 in 7.0 mi Calm Calm - N/A   Scattered Clouds
11:25 PM 61.3 °F 59.9 °F 95% 30.14 in 10.0 mi Calm Calm - N/A   Clear
11:45 PM 61.0 °F 60.1 °F 97% 30.13 in 5.0 mi Calm Calm - N/A   Scattered Clouds